Location: Aalen
(48.8330°N, 10.1000°E)
Time: 00:35:32
(UTC+02:00)

Transit 2A - Pass Details

Date: 06 August 2021
Orbit: 594 x 964 km, 66.7° (Epoch: 26 September)

Event Time Altitude Azimuth Distance (km) Brightness Sun altitude
Rises 13:03:22 0° 327° (NNW) 3,166 8.9 57.4°
Reaches altitude 10° 13:06:02 10° 340° (NNW) 2,305 8.3 57.5°
Maximum altitude 13:10:27 26° 37° (NE) 1,561 7.7 57.6°
Drops below altitude 10° 13:15:14 10° 92° (E) 2,507 8.9 57.7°
Sets 13:18:15 0° 105° (ESE) 3,501 9.5 57.7°
